Погода Чимбай

Погода Чимбай : погода сейчас, прогноз погоды и архив. Всё, что Вы хотите узнать о погоде Чимбай!

Хотите узнать прогноз погоды Чимбай? Тогда Вам сюда: Погода Чимбай

Поиск расширенной информации на нашем сайте:

Другие новости

Новости СМИ2

Главная страница сайта

Новости сайта

03.07.2017

Напоминаем, что на нашем специализированном сайте Метеоцентр.Азия вы можете получить высокодетализированные автоматические прогнозы погоды по пунктам России, СНГ и мира в авиационном формате (включающие направление и скорость ветра, видимость, явления погоды, количество и форму облачности, нижнюю и верхнюю границу облачности).


Погода Чимбай - сегодня

Время (UTC), дата Ветер
(°,м/с) 
Видим.   Явления Облачность Т
(°С)
Тd
(°С)
f(%) Тe
(°С)
Pmin
(гПа)
dP
(гПа)
Po
(мм)
O2
(г/м3)
Тmin Tmax R s Состояние
почвы
09 20.02.18 240 (ЮЗ) 20000 м    10/10 600 м 
[Sc]
+3.1 -3 64 +3  1015.8  -1  756  301           
12 20.02.18 240 (ЮЗ) 20000 м    10/10 600 м кучево-дожд. 
[Cb cap]
+4.8 -0.8 67 +3  1016.4  0.6  756  300           
15 20.02.18 210 (ЮЗ) н/о    10/10 600 м кучево-дожд. 
[Cb cap]
+2.8 +0.1 82 +4  1017.9  1.5  757  302    +5.4       
18 20.02.18 060 (СВ) н/о    3/0 средняя 
[Ac trans]
-10 -14.6 69 -12  1037.8  0.3  772  324    -2.5       
21 20.02.18 260 (З) н/о    10/10 600 м 
[Sc]
+0.8 -2.1 81 1019.8  1.3  759  305           
00 21.02.18 280 (З) н/о    10/10 600 м 
[Sc]
-0.5 -2.3 88 -1  1020.7  0.9  759  307           
03 21.02.18 260 (З) 20000 м    10/10 600 м 
[Sc]
-0.9 -2.1 92 -2  1022.5  1.8  761  308           
06 21.02.18 300 (СЗ) 20000 м    8/8 1000 м 
[Cu med, cong]
-0.6 -3 84 1024.2  1.7  762  308  -1.1         
09 21.02.18 260 (З) 20000 м    3/0 верхняя 
[Ci fib]
+2.8 -4.5 59 +4  1024.2  0.1  762  304           
12 21.02.18 240 (ЮЗ) 20000 м    4/0 верхняя 
[Ci sp]
+5.2 -6.2 44 +6  1024.4  0.2  762  302           
15 21.02.18 350 (С) н/о    8/0 средняя, верхняя 
[Ac trans|Ci sp]
+2 -6 55 +3  1025.2  0.8  763  306    +5.7       
18 21.02.18 030 (СВ) н/о    5/0 верхняя 
[Ci sp]
-1.9 -5.2 78 -1  1026.4  1.1  764  310    +5.7       
21 21.02.18 040 (СВ) н/о    ясно 
-3.1 -5.1 86 -3  1026.4  764  312           
00 22.02.18 040 (СВ) н/о    ясно 
-5.1 -6.1 93 -5  1026.6  764  314           
03 22.02.18 020 (С) 20000 м    5/0 средняя 
[Ac trans]
-6.3 -7.5 91 -8  1026.6  764  316           
06 22.02.18 080 (В) 20000 м    5/0 средняя, верхняя 
[Ac trans|Ci sp]
+2.2 -3.1 68 +2  1025.3  -1  763  305  -6.7         
09 22.02.18 110 (В) 20000 м    8/0 верхняя 
[Ci sp]
+6.8 -4.8 43 +7  1023.4  -1.6  762  300           
12 22.02.18 050 (СВ) 20000 м    9/0 верхняя 
[Ci sp]
+6.2 -3 52 +6  1022  -1.7  760  300           
15 22.02.18 060 (СВ) н/о    6/0 средняя 
[Ac trans]
+0.9 -2.7 77 1021.4  -0.7  760  305    +8.4       
18 22.02.18 050 (СВ) н/о    6/0 средняя 
[Ac trans]
-2.1 -3.6 89 -2  1022  0.6  760  309    +8.4       
21 22.02.18 010 (С) н/о    10/10 600 м 
[Sc]
-2.2 -3.1 94 -3  1022.3  0.3  760  309           
00 23.02.18 070 (В) н/о    10/10 600 м 
[Sc]
-0.2 -1.1 94 -1  1016.1  -0.2  756  305           
06 23.02.18 350 (С) 4000 м  дымка{туман}  10/10 300 м 
[St]
+0 -0.6 96 +1  1021.1  1.3  760  306  -2.5         
09 23.02.18 350 (С) 20000 м    10/10 600 м 
[Sc]
+1.6 -0.9 83 +2  1019.4  -1.7  758  304           
12 23.02.18 020 (С) 20000 м    4/0 средняя 
[Ac trans]
+3.5 -1.8 68 +3  1018.7  -0.5  758  302           
Время (UTC), дата Ветер
(°,м/с) 
Видим.   Явления Облачность Т
(°С)
Тd
(°С)
f(%) Тe
(°С)
Pmin
(гПа)
dP
(гПа)
Po
(мм)
O2
(г/м3)
Тmin Tmax R s Состояние
почвы

Для получения пояснительной информации подведите курсор к названию столбца.

ПОГОДА Чимбай - архив

Всё, что Вы хотите узнать о погоде Чимбай - удобно и подробно!

Выберите нужную дату (начиная с 1 января 2015* года) и нажмите кнопку "Найти".
Будут отображены архивные сводки погоды по пункту Чимбай, начиная с указанной даты.


Отображать данные в формате CSV (для использования в таблицах Excel)


Внимание! Наш архив погоды предназначен исключительно для личного некоммерческого использования в познавательных целях. Если Вам необходимы официальные справки о состоянии погоды (для производственных, юридических, коммерческих и т.п. целей), обращайтесь в органы Росгидромета.

*Примечание: данная дата относится к архиву по метеостанциям СССР (Россия, СНГ, Балтия).
Архив по метеостанциям Зарубежной Европы и Азии (кроме Китая) хранится 10 дней, по другим регионам земного шара (Китай, Африка, Америка, Австралия, Океания) - 1 день.

Чимбай - район местоположения метеостанции


Название, широта, долгота, высота метеостанции:
Чимбай 42.9°ш. 59.8°д. 66 м над ур. моря [Узбекистан]

Дополнительная информация

В oтличие oт бoльшинства пoгoдных сайтoв мы публикуем пoдрoбную метеoинфoрмацию в детальнoм прoфессиoнальнoм фoрмате.

Характеристики температуры и влажнoсти вoздуха измеряются на высoте 2 м в тени вдали oт зданий и деревьев.
Скoрoсть ветра измеряется на высoте 10 м (на урoвне рoста челoвека скoрoсть ветра ниже в 1.5-2 раза). Если метеoстанция нахoдится в гoрoде или в лесу, тo скoрoсть ветра занижена на 2-4 м/с пo сравнению с oткрытым местoм. Скoрoсть ветра над акватoриями крупных рек и oзёр, а также на вершинах хoлмoв на 2-5 м/с выше, чем в oбычных услoвиях.
Атмoсфернoе давление в разных тoчках местнoсти мoжет значительнo oтличаться oт давления на метеoстанции, в зависимoсти oт услoвий рельефа (при пoдъёме на 10 м давление пoнижается примернo на 1 мм рт.ст.).